Regional Weather Roundup
Issued by NWS

Home | Current Version | Previous Version | Graphics & Text | Print | Product List | Glossary On
Versions: 1 2 3 4 5 6 7 8 9 10 11 12 13 14 15 16 17 18 19 20 21 22 23 24 25 26 27 28 29 30 31 32 33 34 35 36 37 38 39 40 41 42 43 44 45 46 47 48 49 50
673
ASUS43 KTOP 242008
RWRKS

WEATHER ROUNDUP FOR KANSAS
NATIONAL WEATHER SERVICE GOODLAND KS
200 PM CST FRI FEB 24 2017

NOTE:  "FAIR" INDICATES FEW OR NO CLOUDS BELOW 12,000 FEET WITH NO
SIGNIFICANT WEATHER AND/OR OBSTRUCTIONS TO VISIBILITY.

KSZ001>006-013>018-027>032-041>047-242100-
NORTHWEST KANSAS

CITY           SKY/WX    TMP DP  RH WIND       PRES   REMARKS
GOODLAND       CLOUDY    28  22  78 N18       29.97S WCI  15
HAYS           FLURRIES  32  24  72 N23       29.96S WCI  19
HILL CITY      CLOUDY    33  23  66 N21G31    29.97F WCI  21
RUSSELL        CLOUDY    30  22  72 N22G31    29.95R WCI  17
$$

KSZ061>065-074>080-084>089-242100-
SOUTHWEST KANSAS

CITY           SKY/WX    TMP DP  RH WIND       PRES   REMARKS
DODGE CITY     CLOUDY    36  19  50 N23G32    29.94R WCI  24
ELKHART          N/A     37  11  34 NW12        N/A  WCI  29
GARDEN CITY    PTSUNNY   37  17  44 N25G31    29.95S WCI  25
LIBERAL        SUNNY     41  18  38 N20G26    29.95S
PRATT          CLOUDY    35  17  48 N24G33    29.93R WCI  22
$$

KSZ066>073-081>083-090>101-242100-
SOUTHEAST KANSAS

CITY           SKY/WX    TMP DP  RH WIND       PRES   REMARKS
CHANUTE        MOSUNNY   43  24  47 W21G29    29.81S
COFFEYVILLE    MOSUNNY   47  26  44 W23G32    29.83F
HUTCHINSON     CLOUDY    35  19  52 NW21G32   29.91R WCI  24
MEDICINE LODGE   N/A     39  18  42 N18G32    29.92R WCI  30
NEWTON         CLOUDY    34  21  59 NW24      29.88R WCI  21
PARSONS        MOSUNNY   47  25  42 W18G31    29.83F
WICHITA INTL   CLOUDY    36  21  54 NW25G31   29.90R WCI  24
WICHITA JABRA  CLOUDY    35  22  58 NW22G30   29.89R WCI  23
WICHITA MCCONL MOSUNNY   37  19  48 NW23G30   29.88S WCI  25
WINFIELD       CLOUDY    40  24  53 NW23G31   29.90S WCI  30
$$

KSZ007>012-019>026-033>040-048>060-102>105-242100-
NORTHEAST KANSAS

CITY           SKY/WX    TMP DP  RH WIND       PRES   REMARKS
CONCORDIA      LGT SNOW  26  23  88 NW25G31   29.92R FOG     WCI  11
EMPORIA        CLOUDY    34  25  69 NW18G31   29.84R WCI  23
LAWRENCE       CLOUDY    35  32  88 NW21G26   29.79S WCI  24
MANHATTAN      LGT SNOW  31  24  75 NW14G23   29.89R WCI  21
MARYSVILLE     LGT SNOW  28  25  86 N20G28    29.87R WCI  15
OLATHE IND     CLOUDY    36  33  89 W16G25    29.77R WCI  26
OLATHE EXE     CLOUDY    35  31  85 NW12G24   29.75R WCI  27
SALINA         CLOUDY    32  20  61 N25G32    29.93R WCI  19
TOPEKA BILLARD CLOUDY    33  28  81 NW16G28   29.82R WCI  23
TOPEKA FORBES  CLOUDY    34  28  79 NW18      29.81R WCI  23
$$




USA.gov is the U.S. government's official web portal to all federal, state and local government web resources and services.